Weather in Kulikovo

Russia / Lipetsk Oblast     52°13′40″N   39°34′28″E
temp.,
°C
wind,
m/s
gust,
m/s
humid.,
%
clouds,
%
prec.,
mm/h
press.,
hPa
HPBL,
m
24 september, fri
fri2400:00+6sw119264 0.0 101214
03:00+7ssw128899 0.0 101168
06:00+8sse369098 0.0 1010224
09:00+9s4883100 0.1 1010489
12:00+13ssw575286 0.1 10081710
15:00+12ssw475299 0.1 10071582
18:00+11s4855100 0.0 1007573
21:00+9s2567100 0.0 1007132
25 september, sat
sat2500:00+7s2378100 0.0 100757
03:00+7sse2476100 0.0 1007151
06:00+8se2576100 0.0 1007188
09:00+9sse257898 0.1 1009368
12:00+10ssw247499 0.0 1009500
15:00+13sw236489 0.2 10101166
18:00+10sw22798 0.1 101013
21:00+8ssw248787 0.1 101160
26 september, sun
sun2600:00+9sw248899 0.0 101072
03:00+9sw3881100 0.0 1009289
06:00+9sw41094100 0.6 1007649
09:00+10wsw4994100 1.9 1006628
12:00+12nw598187 4.4 1006857
15:00+11nw71278100 5.8 10071265
18:00+9nw61283100 0.4 10091320
21:00+9nw61187100 0.7 10091186
27 september, mon
mon2700:00+9nw51191100 0.3 1009774
03:00+9n51092100 0.6 1012699
06:00+9n5119295 0.6 1014742
09:00+10n51288100 0.6 1016723
12:00+13n576613 0.0 10181134
15:00+13n5660100 0.0 10191543
18:00+10n3775100 0.1 1021314
21:00+9nne3786100 0.1 1022527
28 september, tue
tue2800:00+9n3690100 0.1 1023407
03:00+9nne3791100 0.1 1024407
06:00+8nne3790100 0.0 1025463
09:00+9nne3685100 0.0 1027524
12:00+10ne3475100 0.0 1028809
15:00+11ne3477100 0.1 1029749
18:00+10ne3585100 0.1 1029386
21:00+9ne3788100 0.1 1030317